Redcliffe Observation History
Time Wind Speed Temp Pressure Rel. Hum Rain
04/04:30am SSW 9-13 kts 12.3°c 1025.0 hPa 70% 0.0mm
04/04:00am SSW 9-15 kts 12.2°c 1024.9 hPa 71% 0.0mm
04/03:30am SW 8-10 kts 12.4°c 1024.7 hPa 71% 0.0mm
04/03:00am SW 9-13 kts 12.0°c 1024.8 hPa 74% 0.0mm
04/02:30am SW 9-13 kts 12.2°c 1024.9 hPa 73% 0.0mm
04/02:00am SSW 9-13 kts 12.0°c 1024.9 hPa 74% 0.0mm
04/01:30am SW 6-9 kts 11.8°c 1025.1 hPa 76% 0.0mm
04/01:00am SW 7-9 kts 11.8°c 1024.9 hPa 75% 0.0mm
04/12:30am SW 7-10 kts 11.9°c 1024.9 hPa 75% 0.0mm
04/12:00am WSW 8-10 kts 11.8°c 1025.0 hPa 77% 0.0mm
Time Wind Speed Temp Pressure Rel. Hum Rain
03/11:30pm WSW 8-10 kts 11.9°c 1025.0 hPa 78% 0.0mm
03/11:00pm WSW 7-8 kts 11.9°c 1025.2 hPa 77% 0.0mm
03/10:30pm WSW 7-9 kts 12.3°c 1025.4 hPa 76% 0.0mm
03/10:00pm SSW 9-13 kts 12.4°c 1025.2 hPa 77% 0.0mm
03/09:30pm S 12-18 kts 12.8°c 1025.3 hPa 78% 0.0mm
03/09:00pm SW 5-7 kts 13.2°c 1025.0 hPa 78% 0.0mm
03/08:30pm S 9-10 kts 14.0°c 1024.8 hPa 73% 0.0mm
03/08:00pm SSE 9-11 kts 15.6°c 1024.4 hPa 65% 0.0mm
03/07:30pm SSE 11-13 kts 16.8°c 1023.9 hPa 63% 0.0mm
03/07:00pm ESE 10-12 kts 16.9°c 1023.4 hPa 62% 0.0mm
03/06:30pm E 9-10 kts 16.8°c 1022.6 hPa 58% 0.0mm
03/06:00pm E 11-13 kts 16.9°c 1022.2 hPa 54% 0.0mm
03/05:30pm E 10-11 kts 17.0°c 1021.5 hPa 53% 0.0mm
03/05:00pm ENE 9-10 kts 17.4°c 1021.0 hPa 50% 0.0mm
03/04:30pm E 8-10 kts 17.9°c 1020.6 hPa 46% 0.0mm
03/04:00pm ENE 7-8 kts 18.4°c 1020.2 hPa 39% 0.0mm
03/03:30pm E 7-8 kts 18.5°c 1020.0 hPa 39% 0.0mm
03/03:00pm E 7 kts 18.5°c 1019.8 hPa 42% 0.0mm
03/02:30pm NE 7-8 kts 19.1°c 1019.9 hPa 46% 0.0mm
03/02:00pm SE 9-10 kts 19.3°c 1019.8 hPa 39% 0.0mm
03/01:30pm SE 8-9 kts 20.1°c 1019.8 hPa 38% 0.0mm
03/01:00pm SSE 8-9 kts 20.1°c 1020.1 hPa 35% 0.0mm
03/12:30pm SSE 9-11 kts 19.6°c 1020.4 hPa 34% 0.0mm
03/12:00pm SSW 7-11 kts 19.1°c 1020.8 hPa 39% 0.0mm
03/11:30am SW 7-10 kts 18.8°c 1021.1 hPa 39% 0.0mm
03/11:00am SW 7-12 kts 18.0°c 1021.3 hPa 40% 0.0mm
03/10:30am WSW 7-10 kts 17.1°c 1021.6 hPa 42% 0.0mm
03/10:00am SW 7-10 kts 16.2°c 1021.8 hPa 45% 0.0mm
03/09:30am SW 7-10 kts 15.6°c 1021.9 hPa 48% 0.0mm
03/09:00am SW 9-12 kts 14.5°c 1021.8 hPa 51% 0.0mm
03/08:30am WSW 8-14 kts 13.5°c 1021.8 hPa 53% 0.0mm
03/08:00am WSW 6-10 kts 12.5°c 1021.7 hPa 55% 0.0mm
03/07:30am W 7-10 kts 11.4°c 1021.5 hPa 57% 0.0mm
03/07:00am WNW 7-10 kts 10.7°c 1021.2 hPa 59% 0.0mm
03/06:30am W 8-12 kts 9.8°c 1020.9 hPa 63% 0.0mm
03/06:00am W 7-8 kts 9.3°c 1020.8 hPa 64% 0.0mm
03/05:30am WNW 5-7 kts 9.4°c 1020.4 hPa 62% 0.0mm
03/05:00am WNW 5-7 kts 9.8°c 1020.0 hPa 61% 0.0mm
03/04:30am NW 5-8 kts 9.9°c 1019.7 hPa 61% 0.0mm
03/04:00am NW 5-6 kts 9.9°c 1019.7 hPa 63% 0.0mm
03/03:30am NW 1-4 kts 9.2°c 1019.7 hPa 65% 0.0mm
03/03:00am W 4 kts 10.3°c 1019.8 hPa 56% 0.0mm
03/02:30am W 1-3 kts 10.3°c 1019.7 hPa 61% 0.0mm
03/02:00am W 2-5 kts 11.4°c 1019.5 hPa 53% 0.0mm
03/01:30am W 5-7 kts 11.8°c 1019.8 hPa 52% 0.0mm
03/01:00am NE 4-7 kts 11.3°c 1019.9 hPa 56% 0.0mm
03/12:30am WSW 4 kts 12.6°c 1019.9 hPa 47% 0.0mm
03/12:00am WSW 8-12 kts 13.4°c 1020.1 hPa 45% 0.0mm
Time Wind Speed Temp Pressure Rel. Hum Rain
02/11:30pm WSW 9-13 kts 13.4°c 1020.4 hPa 45% 0.0mm
02/11:00pm W 8-15 kts 13.5°c 1020.7 hPa 45% 0.0mm
02/10:30pm W 13-17 kts 13.4°c 1020.9 hPa 44% 0.0mm
02/10:00pm WNW 9-15 kts 14.2°c 1020.9 hPa 42% 0.0mm
02/09:30pm W 13-23 kts 14.4°c 1021.0 hPa 40% 0.0mm
02/09:00pm W 8-13 kts 14.2°c 1020.8 hPa 40% 0.0mm
02/08:30pm W 8-13 kts 14.5°c 1020.6 hPa 39% 0.0mm
02/08:00pm W 9-13 kts 13.9°c 1020.6 hPa 40% 0.0mm
02/07:30pm W 9-13 kts 14.8°c 1020.3 hPa 37% 0.0mm
02/07:00pm WSW 9-16 kts 15.4°c 1020.0 hPa 34% 0.0mm
02/06:30pm WSW 8-13 kts 15.7°c 1019.3 hPa 33% 0.0mm
02/06:00pm WSW 4-7 kts 16.3°c 1018.9 hPa 31% 0.0mm
02/05:30pm W 11-19 kts 16.8°c 1018.2 hPa 30% 0.0mm
02/05:00pm WSW 7-11 kts 17.3°c 1018.3 hPa 28% 0.0mm
02/04:30pm WSW 11-18 kts 18.5°c 1017.3 hPa 26% 0.0mm
02/04:00pm WSW 14-25 kts 19.0°c 1016.6 hPa 25% 0.0mm
02/03:46pm WSW 15-25 kts 19.2°c 1017.0 hPa 25% 0.0mm
02/03:30pm WSW 10-16 kts 19.5°c 1017.0 hPa 25% 0.0mm
02/03:00pm W 14-20 kts 19.6°c 1016.6 hPa 24% 0.0mm
02/02:30pm WSW 14-20 kts 19.7°c 1016.9 hPa 25% 0.0mm
02/02:00pm WSW 13-22 kts 19.9°c 1016.5 hPa 26% 0.0mm
02/01:43pm WSW 15-25 kts 19.1°c 1016.6 hPa 25% 0.0mm
02/01:30pm WSW 16-23 kts 19.1°c 1016.8 hPa 26% 0.0mm
02/01:09pm WSW 15-25 kts 18.8°c 1017.1 hPa 26% 0.0mm
02/01:00pm WSW 17-25 kts 19.5°c 1017.2 hPa 29% 0.0mm
02/12:48pm WSW 15-26 kts 19.4°c 1017.2 hPa 28% 0.0mm
02/12:30pm W 14-23 kts 19.0°c 1017.3 hPa 28% 0.0mm
02/12:00pm WSW 15-26 kts 18.2°c 1017.9 hPa 28% 0.0mm
02/11:30am WSW 16-28 kts 18.5°c 1018.2 hPa 30% 0.0mm
02/11:07am WSW 17-27 kts 17.4°c 1017.9 hPa 31% 0.0mm
02/11:00am WSW 18-25 kts 17.4°c 1017.9 hPa 31% 0.0mm
02/10:30am WSW 18-28 kts 17.0°c 1018.1 hPa 32% 0.0mm
02/10:03am WSW 15-28 kts 16.5°c 1018.5 hPa 33% 0.0mm
02/10:00am WSW 14-28 kts 16.4°c 1018.5 hPa 33% 0.0mm
02/09:30am WSW 16-26 kts 16.6°c 1018.8 hPa 36% 0.0mm
02/09:12am WSW 15-26 kts 16.0°c 1018.6 hPa 37% 0.0mm
02/09:00am WSW 15-24 kts 16.1°c 1018.6 hPa 39% 0.0mm
02/08:47am WSW 16-27 kts 15.8°c 1018.5 hPa 42% 0.0mm
02/08:30am WSW 15-23 kts 15.7°c 1018.5 hPa 42% 0.0mm
02/08:00am WSW 12-19 kts 15.3°c 1018.1 hPa 44% 0.0mm
02/07:32am WSW 15-25 kts 15.1°c 1018.0 hPa 48% 0.0mm
02/07:30am WSW 15-22 kts 15.0°c 1018.1 hPa 49% 0.0mm
02/07:25am WSW 15-22 kts 15.0°c 1018.1 hPa 49% 0.0mm
02/07:00am W 7-12 kts 15.1°c 1018.0 hPa 49% 0.0mm
02/06:30am WSW 6-10 kts 14.6°c 1018.0 hPa 51% 0.0mm
02/06:00am WSW 9-14 kts 15.3°c 1017.4 hPa 48% 0.0mm
02/05:30am WSW 14-18 kts 15.7°c 1017.3 hPa 49% 0.0mm
02/05:00am WSW 10-17 kts 16.2°c 1016.5 hPa 50% 0.0mm
02/04:30am WSW 8-13 kts 16.2°c 1016.1 hPa 51% 0.0mm
02/04:00am W 10-14 kts 16.7°c 1015.7 hPa 49% 0.0mm
02/03:30am W 8-10 kts 17.3°c 1015.5 hPa 53% 0.0mm
02/03:00am WSW 8-14 kts 17.6°c 1015.3 hPa 64% 0.0mm
02/02:30am W 7-12 kts 18.0°c 1015.2 hPa 76% 0.0mm
02/02:00am NW 6-9 kts 17.3°c 1014.8 hPa 84% 0.0mm
02/01:30am NW 6-8 kts 17.3°c 1014.8 hPa 88% 0.0mm
02/01:00am NNW 6-7 kts 17.5°c 1014.8 hPa 89% 0.0mm
02/12:30am N 7-9 kts 17.5°c 1014.9 hPa 89% 0.0mm
02/12:00am NNW 8-10 kts 17.8°c 1014.9 hPa 88% 0.0mm